Weather History for KROW - June, 2013

Change the Weather History Date:

Friday, June 21, 2013

  Actual Average Record
Temperature  
Mean Temperature 82 °F 80 °F  
Max Temperature 99 °F 94 °F 109 °F (1981)
Min Temperature 65 °F 65 °F 53 °F (1912)
Degree Days  
Heating Degree Days 0 0  
Month to date heating degree days 0 0  
Since 1 June heating degree days 0 0  
Since 1 July heating degree days 2984 3287  
Cooling Degree Days 17 14  
Month to date cooling degree days 345 261  
Year to date cooling degree days 668 486  
Since 1 June cooling degree days 345 261  
Growing Degree Days 32 (Base 50)    
Moisture  
Dew Point 53 °F    
Average Humidity 39    
Maximum Humidity 63    
Minimum Humidity 14    
Precipitation  
Precipitation 0.00 in 0.07 in 0.72 in (1999)
Month to date precipitation 0.17 1.08  
Year to date precipitation 0.64 4.25  
Sea Level Pressure  
Sea Level Pressure 29.76 in    
Wind  
Wind Speed 15 mph (SSE)    
Max Wind Speed 35 mph    
Max Gust Speed 44 mph    
Visibility 10 miles    
Events      
T = Trace of Precipitation, MM = Missing Value Source: NWS Daily Summary

Daily Weather History Graph

Daily Weather History Graph

Search for Another Location

Airport or City:

Trip Planner

Search our weather history database for the weather conditions in past years. The results will help you decide how hot, cold, wet, or windy it might be!

Date:

Astronomy

Jun. 21, 2013 Rise Set
Actual Time 5:49 AM MDT 8:10 PM MDT
Civil Twilight 5:20 AM MDT 8:39 PM MDT
Nautical Twilight 4:44 AM MDT 9:15 PM MDT
Astronomical Twilight 4:06 AM MDT 9:53 PM MDT
Moon 6:27 PM MDT (6/21) 4:02 AM MDT (6/21)
Length of Visible Light 15h 19m
Length of Day
14h 21m
Waxing Gibbous, 95% of the Moon is Illuminated
Jun 21
Waxing Gibbous
Jun 23
Full
Jun 29
Last Quarter
Jul 8
New
Jul 15
First Quarter

Hourly Weather History & Observations

Time (MDT) Temp. Heat Index Dew Point Humidity Pressure Visibility Wind Dir Wind Speed Gust Speed Precip Events Conditions
12:51 AM 73.9 °F - 55.9 °F 53% 29.85 in 10.0 mi SSE 17.3 mph - N/A   Clear
1:51 AM 73.0 °F - 54.0 °F 51% 29.83 in 10.0 mi SSE 13.8 mph - N/A   Clear
2:51 AM 70.0 °F - 54.0 °F 57% 29.83 in 10.0 mi SSE 8.1 mph - N/A   Clear
3:51 AM 66.0 °F - 54.0 °F 65% 29.81 in 10.0 mi SSW 10.4 mph - N/A   Clear
4:51 AM 68.0 °F - 54.0 °F 61% 29.81 in 10.0 mi South 9.2 mph - N/A   Clear
5:51 AM 66.9 °F - 53.1 °F 61% 29.83 in 10.0 mi South 6.9 mph - N/A   Clear
6:51 AM 66.9 °F - 54.0 °F 63% 29.84 in 10.0 mi SE 5.8 mph - N/A   Clear
7:51 AM 73.0 °F - 54.0 °F 51% 29.83 in 10.0 mi SE 11.5 mph - N/A   Clear
8:51 AM 79.0 °F - 54.0 °F 42% 29.83 in 10.0 mi SSE 15.0 mph - N/A   Clear
9:51 AM 82.9 °F 82.4 °F 57.0 °F 41% 29.81 in 10.0 mi SSE 16.1 mph - N/A   Clear
10:51 AM 88.0 °F 86.5 °F 55.9 °F 34% 29.81 in 10.0 mi South 13.8 mph 21.9 mph N/A   Clear
11:51 AM 91.0 °F 88.9 °F 55.0 °F 29% 29.78 in 10.0 mi South 9.2 mph - N/A   Clear
12:51 PM 93.9 °F - 52.0 °F 24% 29.75 in 10.0 mi SE 11.5 mph 20.7 mph N/A   Clear
1:51 PM 96.1 °F - 51.1 °F 22% 29.75 in 10.0 mi SSE 15.0 mph 24.2 mph N/A   Clear
2:51 PM 93.0 °F - 43.0 °F 18% 29.76 in 6.0 mi South 24.2 mph 43.7 mph N/A   Haze
3:51 PM 97.0 °F - 39.9 °F 14% 29.70 in 10.0 mi SSE 9.2 mph 19.6 mph N/A   Clear
4:51 PM 98.1 °F - 46.9 °F 18% 29.68 in 10.0 mi SE 21.9 mph 29.9 mph N/A   Clear
5:51 PM 98.1 °F - 46.9 °F 18% 29.65 in 10.0 mi SSE 17.3 mph 25.3 mph N/A   Clear
6:51 PM 96.1 °F - 48.9 °F 20% 29.65 in 10.0 mi SE 17.3 mph 24.2 mph N/A   Clear
7:51 PM 93.0 °F - 52.0 °F 25% 29.65 in 10.0 mi SSE 13.8 mph - N/A   Clear
8:51 PM 90.0 °F - 48.9 °F 24% 29.67 in 10.0 mi SSE 15.0 mph 24.2 mph N/A   Clear
9:51 PM 84.9 °F 85.0 °F 61.0 °F 44% 29.72 in 10.0 mi SSE 18.4 mph 34.5 mph N/A   Clear
10:51 PM 82.0 °F 82.7 °F 61.0 °F 49% 29.73 in 10.0 mi SE 24.2 mph 34.5 mph N/A   Clear
11:51 PM 81.0 °F 81.6 °F 60.1 °F 49% 29.74 in 10.0 mi SE 25.3 mph 32.2 mph N/A   Clear